Regional Weather Roundup
Issued by NWS

Home | Current Version | Previous Version | Text Only | Print | Product List | Glossary Off
Versions: 1 2 3 4 5 6 7 8 9 10 11 12 13 14 15 16 17 18 19 20 21 22 23 24 25 26 27 28 29 30 31 32 33 34 35 36 37 38 39 40 41 42 43 44 45 46 47 48 49 50

000
ASUS43 KLOT 251302
RWRIL

ILLINOIS REGIONAL WEATHER ROUNDUP
NATIONAL WEATHER SERVICE CHICAGO/ROMEOVILLE IL
800 AM CDT SAT MAR 25 2017

NOTE: "FAIR" INDICATES FEW OR NO CLOUDS BELOW 12,000 FEET WITH NO
SIGNIFICANT WEATHER AND/OR OBSTRUCTIONS TO VISIBILITY.

* THESE STATIONS ARE NOT UNDER NWS QUALITY CONTROL. THEY ALSO MAY NOT
  REPORT WEATHER SUCH AS PRECIPITATION OR FOG.

ILZ001-002-007-009-015-016-024-251400-
NORTHWEST ILLINOIS

CITY           SKY/WX    TMP DP  RH WIND       PRES   REMARKS
MOLINE         LGT RAIN  43  40  89 NE16      29.91F FOG
STERLING*      LGT RAIN  40  39  97 E20       29.97S
SAVANNA*       RAIN      40  38  92 NE15G22   30.00R
$$

ILZ003-004-008-010-011-017-018-251400-
NORTH CENTRAL ILLINOIS

CITY           SKY/WX    TMP DP  RH WIND       PRES   REMARKS
ROCKFORD       CLOUDY    40  37  89 NE18G26   30.05F
FREEPORT*      CLOUDY    38  37  97 NE18G24   30.04S WCI  28
ROCHELLE*      LGT RAIN  39  39  97 NE20      30.01S WCI  30
DE KALB*       DRIZZLE   40  39  97 NE17G24   30.02F
$$

ILZ005-006-012>014-019>023-251400-
NORTHEAST ILLINOIS

CITY           SKY/WX    TMP DP  RH WIND       PRES   REMARKS
CHICAGO-OHARE  DRIZZLE   42  39  89 NE14      30.05S
CHICAGO-MIDWAY LGT RAIN  42  41  96 NE12      30.04F FOG
AURORA         RAIN      42  40  92 NE18      30.01F FOG
LANSING*         N/A    N/A N/A N/A NE6       30.04F
JOLIET*        HVY RAIN  43  42  98 NE10      30.02F
WAUKEGAN       LGT RAIN  38  38 100 NE15G24   30.08R FOG     WCI  29
DUPAGE AIRPORT LGT RAIN  41  41 100 NE14      30.03F FOG
WHEELING       LGT RAIN  39  39 100 NE10G21   30.08S FOG     WCI  32
MORRIS*        RAIN      42  41  95 NE7       29.98F
NORTHERLY ISL    N/A     39  38  96 N14         N/A  WCI  31
$$

LMZ740>746-251400-
SOUTHERN LAKE MICHIGAN

STATION/POSITION SKY/WX   TEMP    WIND        PRES    VSBY  WAVE
                          AIR SEA DIR/SP/G                  HT/PER
                          (F)     (DEG/KT/KT) (MB)    (MI)  (FT/S)
HARRISON CRIB                      10/ 13/ 14   N/A
BURNHAM HARBOR                    360/ 13/ 15   N/A
CALUMET HARBOR                    340/ 11/ 13 1017.0F
BURNS HARBOR               39     330/  2/  5 1018.3R
MICHIGAN CITY              39     240/  5/  7   N/A
$$

ILZ025>027-034>036-040-047-049-050-058-095>099-251400-
WEST-CENTRAL ILLINOIS

CITY           SKY/WX    TMP DP  RH WIND       PRES   REMARKS
QUINCY         LGT RAIN  57  56  96 S5        29.83R FOG
GALESBURG*     RAIN      45  45 100 NE15      29.86S
MACOMB*        CLOUDY    47  47 100 NE14      29.87R FOG
JACKSONVILLE*  CLOUDY    58  56  94 S9        29.85R
PITTSFIELD*    CLOUDY    58  57  97 S7        29.85R
$$

ILZ028>032-037-038-041>044-048-051>054-059>061-251400-
CENTRAL ILLINOIS

CITY           SKY/WX    TMP DP  RH WIND       PRES   REMARKS
PONTIAC        LGT RAIN  45  45  99 NE20      29.94F
BLOOMINGTON    CLOUDY    46  46 100 E18       29.90F FOG
DECATUR        FAIR      62  54  74 S18G24    29.87R
PEORIA         CLOUDY    48  47  96 E18       29.88S FOG
SPRINGFIELD    FAIR      61  56  83 S15G24    29.86R
TAYLORVILLE    NOT AVBL
$$

ILZ033-039-045-046-055>057-062-063-251400-
EAST-CENTRAL ILLINOIS

CITY           SKY/WX    TMP DP  RH WIND       PRES   REMARKS
CHAMPAIGN      CLOUDY    63  54  72 SE16      29.90S
RANTOUL*       CLOUDY    57  54  90 NE9       29.91F
MATTOON        FAIR      63  55  75 S16G23    29.90R
PARIS*         FAIR      63  55  74 SE22      29.94F
$$

ILZ079-100>102-251400-
SOUTHWEST ILLINOIS

CITY           SKY/WX    TMP DP  RH WIND       PRES   REMARKS
ALTON          CLOUDY    55  52  88 S12       29.87R
BELLEVILLE     SUNNY     56  56 100 SE16G22   29.87R
CAHOKIA*       FAIR      57  52  83 S13G18    29.86S
SPARTA*        CLOUDY    55  52  89 SE14G20   29.90S
$$

ILZ064>066-069>071-074>076-080>082-084>086-088>090-092>094-251400-
SOUTH-CENTRAL ILLINOIS

CITY           SKY/WX    TMP DP  RH WIND       PRES   REMARKS
CARBONDALE     LGT RAIN  56  54  93 SE12      29.93R
CAIRO*         RAIN      55  55  99 SE10      29.95F
EFFINGHAM*     FAIR      62  56  82 SE12G17   29.94R
MARION         CLOUDY    57  57 100 S12G17    29.95S
MT. VERNON     LGT RAIN  58  53  84 S8        29.95R
CENTRALIA*     LGT RAIN  58  54  86 SE12G18   29.92R
SALEM*         FAIR      60  53  79 S12       29.92R
$$

ILZ067-068-072-073-078-083-087-091-251400-
SOUTHEAST ILLINOIS

CITY           SKY/WX    TMP DP  RH WIND       PRES   REMARKS
LAWRENCEVILLE  PTSUNNY   64  53  67 S17G26    29.97S
FLORA*         FAIR      60  54  80 S15       29.95R
FAIRFIELD*     CLOUDY    60  54  82 S9        29.95R
HARRISBURG*    LGT RAIN  57  55  92 S13       29.99R
ROBINSON*      PTSUNNY   64  54  70 S22G28    29.97R
CARMI*         CLOUDY    58  55  87 S17G23    29.98R
$$

ABBREVIATIONS USED IN REMARKS
   TC - TEMPERATURE IN CELSIUS
  WCI - WIND CHILL INDEX
   HX - HEAT INDEX
  VSB - VISIBILITY
$$





USA.gov is the U.S. government's official web portal to all federal, state and local government web resources and services.